Terug naar catalogus

STARLINK-37237

ActiefCommunicatieVLEO
NORAD 69185·PAYLOAD·🇺🇸 United States

Gelanceerd May 25, 2026 vanaf Cape Canaveral Space Force Station

Loading…

Volgende Passages (komende 24 uur)

TLE

VersSource: CelesTrak SupGP

Epoch: Sep 14, 2026, 23:08 UTC

1 69185C 26114D   26257.96437500  .00005582  00000+0  16508-3 0  2578
2 69185  53.1560 139.8839 0001202  87.1379 233.6188 15.34354223    16

Volg STARLINK-37237 in realtime met AllMySat

Download on the App Store